[[{"header":{"parameterUnit":"m.s-1","parameterCategory":1,"la1":30.2991,"la2":30.254,"lo1":-89.0895,"lo2":-89.0444,"dy":0.0017,"dx":0.0017,"nx":28,"ny":28,"refTime":"2024-05-01T03:00:00:Z","depth":0,"parameterNumber":2,"parameterNumberName":"U-component_of_WINDS"},"data":[0,0,0,0,0,0,0,0,0,0,0,0,0,0,0,0,0,0,0,0,0,0,0,0,0,0,0,0,0,0,0,0,0,0,0,0,0,0,0,0,0,0,0,0,0,0,0,0,0,0,0,0,0,0,0,0,0,0,-2.4398,-2.4397,0,-2.4286,-2.4284,-2.4283,-2.4185,-2.4184,-2.4183,-2.4182,-2.4066,-2.4064,-2.4062,0,0,0,0,0,0,0,0,0,0,0,0,0,-2.4529,-2.4527,-2.4398,-2.4397,-2.4395,-2.4286,-2.4284,-2.4283,-2.4186,-2.4184,-2.4183,-2.4182,-2.4067,-2.4064,-2.4062,0,0,0,0,0,0,0,0,0,0,0,0,0,-2.445,-2.4527,-2.4398,-2.4334,-2.4327,-2.4286,-2.4284,-2.4282,-2.4186,-2.4184,-2.4182,-2.4181,-2.4068,-2.4065,-2.4062,-2.4076,0,0,-2.4052,-2.4051,0,0,0,0,0,0,0,0,-2.4455,-2.4445,-2.4345,-2.4338,-2.433,-2.4248,-2.4288,-2.4213,-2.4186,-2.4239,-2.4182,-2.418,-2.4128,-2.412,-2.4102,-2.407,-2.4065,-2.4052,-2.405,-2.4049,-2.4048,0,0,0,0,0,0,0,-2.446,-2.445,-2.4353,-2.4343,-2.4334,-2.431,-2.4297,-2.4273,-2.4194,-2.4235,-2.4227,-2.4215,-2.4124,-2.4106,-2.4099,-2.4064,-2.4052,-2.4049,-2.4047,-2.4046,-2.4038,-2.404,0,0,0,0,0,0,-2.4476,-2.4455,-2.4357,-2.435,-2.439,-2.4309,-2.4295,-2.4276,-2.4194,-2.418,-2.4217,-2.4211,-2.4112,-2.4103,-2.4094,-2.4105,-2.4049,-2.4046,-2.4044,-2.4037,-2.4039,-2.4041,0,0,0,0,0,0,-2.4479,-2.4468,-2.4362,-2.44,-2.4385,-2.4309,-2.4289,-2.4275,-2.4256,-2.4181,-2.4166,-2.4213,-2.411,-2.4099,-2.4081,-2.41,-2.4044,-2.4042,-2.4035,-2.4037,-2.404,-2.4128,0,0,0,0,0,0,-2.4483,-2.447,-2.4474,-2.4401,-2.4383,-2.4351,-2.429,-2.4274,-2.4251,-2.4243,-2.4173,-2.416,-2.4108,-2.4086,-2.4078,-2.4095,-2.4039,-2.4033,-2.4036,-2.4039,-2.4123,-2.4133,-2.4142,0,0,0,0,0,-2.4488,-2.4503,-2.4475,-2.4463,-2.4387,-2.4352,-2.4341,-2.4281,-2.4253,-2.4257,-2.4209,-2.4162,-2.41,-2.4086,-2.4075,-2.4091,-2.4031,-2.4035,-2.4039,-2.4119,-2.4131,-2.4142,0,0,0,0,0,0,-2.4579,-2.4492,-2.446,-2.4452,-2.441,-2.4335,-2.4338,-2.4296,-2.4261,-2.4255,-2.4182,-2.4167,-2.4157,-2.4123,-2.4108,-2.4101,-2.4059,-2.4061,-2.4124,-2.4135,-2.4144,-2.4152,-2.4037,0,0,0,0,0,-2.4599,-2.4577,-2.4502,-2.4502,-2.4483,-2.4415,-2.4397,-2.4355,-2.4308,-2.429,-2.424,-2.4197,-2.4168,-2.415,-2.4118,-2.4118,-2.4102,-2.4124,-2.4134,-2.4142,-2.4144,-2.4141,-2.4151,-2.4053,-2.4053,-2.4053,0,0,-2.4638,-2.4588,-2.4578,-2.4519,-2.4482,-2.4461,-2.44,-2.4381,-2.4365,-2.4287,-2.4267,-2.423,-2.4177,-2.4168,-2.4162,-2.4139,-2.4168,-2.4147,-2.4154,-2.4151,-2.4146,-2.4156,-2.4164,-2.4055,-2.4055,-2.4054,0,0,-2.4698,-2.4658,-2.4654,-2.4618,-2.4563,-2.4518,-2.4517,-2.4449,-2.4421,-2.4401,-2.4342,-2.4322,-2.4273,-2.4238,-2.4214,-2.4264,-2.4219,-2.4256,-2.4304,-2.4303,-2.431,-2.4317,-2.4334,-2.4341,-2.4258,-2.4259,-2.4259,0,-2.4753,-2.472,-2.4657,-2.4641,-2.4617,-2.4547,-2.4542,-2.451,-2.4448,-2.4433,-2.4409,-2.4346,-2.4306,-2.4288,-2.43,-2.4283,-2.428,-2.4262,-2.4314,-2.432,-2.4325,-2.4341,-2.4347,-2.4263,-2.4263,-2.4262,-2.4262,0,-2.4791,-2.4769,-2.4772,-2.4713,-2.469,-2.468,-2.4616,-2.46,-2.4561,-2.4518,-2.4499,-2.4448,-2.4406,-2.4399,-2.436,-2.4376,-2.4363,-2.4328,-2.4284,-2.434,-2.4353,-2.4359,-2.427,-2.4268,-2.4267,-2.4266,0,0,-2.4902,-2.4811,-2.4813,-2.4786,-2.4721,-2.4703,-2.4691,-2.4649,-2.4637,-2.4597,-2.4584,-2.4546,-2.4513,-2.4486,-2.4442,-2.4441,-2.4484,-2.4406,-2.4403,-2.4421,-2.4498,-2.4524,-2.4532,-2.4455,-2.4456,-2.4457,-2.4502,0,-2.4951,-2.4924,-2.4868,-2.4859,-2.4838,-2.4772,-2.4761,-2.472,-2.4681,-2.4658,-2.4614,-2.4588,-2.4547,-2.453,-2.4526,-2.4479,-2.4498,-2.4476,-2.4442,-2.4441,-2.4455,-2.4539,-2.4566,-2.4611,-2.4507,-2.4508,-2.4509,0,-2.5004,-2.4968,-2.4957,-2.4894,-2.4883,-2.4874,-2.4833,-2.4811,-2.4764,-2.4736,-2.4707,-2.4659,-2.4643,-2.4605,-2.4581,-2.4567,-2.455,-2.4526,-2.4526,-2.4519,-2.4477,-2.4533,-2.4624,-2.4631,-2.4516,-2.4516,-2.4515,0,-2.5086,-2.5036,-2.5022,-2.5001,-2.4928,-2.4923,-2.4892,-2.4843,-2.4823,-2.4787,-2.4773,-2.4736,-2.4715,-2.4687,-2.4632,-2.4609,-2.4614,-2.4571,-2.4589,-2.4591,-2.4592,-2.4592,-2.468,-2.4584,-2.4584,-2.4584,-2.4584,0,-2.5145,-2.5141,-2.5058,-2.505,-2.5043,-2.4979,-2.4975,-2.4938,-2.4895,-2.4879,-2.482,-2.4806,-2.4734,-2.4712,-2.4668,-2.4655,-2.4647,-2.4623,-2.4611,-2.4627,-2.463,-2.4614,-2.4609,-2.4586,-2.4585,-2.4585,-2.4585,0,-2.5235,-2.5179,-2.516,-2.5093,-2.5076,-2.5074,-2.5016,-2.5006,-2.4964,-2.4944,-2.4936,-2.487,-2.4841,-2.4783,-2.4738,-2.4709,-2.4705,-2.4685,-2.4721,-2.4713,-2.4735,-2.4733,-2.4814,-2.4822,-2.4723,-2.4724,-2.4725,0,-2.5275,-2.527,-2.5203,-2.5188,-2.5159,-2.5136,-2.5115,-2.5053,-2.5033,-2.498,-2.4976,-2.4943,-2.4912,-2.4869,-2.4817,-2.4783,-2.4761,-2.4792,-2.4755,-2.4772,-2.476,-2.476,-2.4759,-2.4799,-2.4801,-2.4802,-2.4803,0,-2.5353,-2.5327,-2.5298,-2.5261,-2.5238,-2.5205,-2.517,-2.5161,-2.5091,-2.5072,-2.5042,-2.5019,-2.4973,-2.494,-2.4899,-2.4867,-2.4823,-2.4815,-2.4817,-2.4833,-2.4854,-2.4842,-2.4742,-2.4813,-2.4812,-2.4811,-2.4811,-2.481,-2.5418,-2.5411,-2.5363,-2.5334,-2.5301,-2.5269,-2.5256,-2.5214,-2.5187,-2.5145,-2.5111,-2.5084,-2.5038,-2.4977,-2.4948,-2.4926,-2.4905,-2.4909,-2.4909,-2.4911,-2.4917,-2.4859,-2.4919,-2.4918,-2.4918,-2.4918,-2.4917,0,-2.5493,-2.5459,-2.5433,-2.5385,-2.5363,-2.5325,-2.5284,-2.5268,-2.5245,-2.5205,-2.5177,-2.5143,-2.5112,-2.5058,-2.5023,-2.5015,-2.4994,-2.5008,-2.5007,-2.5,-2.4938,-2.494,-2.5025,-2.5025,-2.5025,-2.5025,-2.5025,-2.5025,-2.5529,-2.5514,-2.5482,-2.5451,-2.5417,-2.539,-2.537,-2.5341,-2.5309,-2.5274,-2.5247,-2.5213,-2.5169,-2.5129,-2.5099,-2.5084,-2.5073,-2.5093,-2.5072,-2.5015,-2.5004,-2.4995,-2.4995,-2.5091,-2.5091,-2.5135,-2.5135,-2.5136]},{"header":{"parameterUnit":"m.s-1","parameterCategory":1,"la1":30.2991,"la2":30.254,"lo1":-89.0895,"lo2":-89.0444,"dy":0.0017,"dx":0.0017,"nx":28,"ny":28,"refTime":"2024-05-01T03:00:00:Z","depth":0,"parameterNumber":3,"parameterNumberName":"V-component_of_WINDS"},"data":[0,0,0,0,0,0,0,0,0,0,0,0,0,0,0,0,0,0,0,0,0,0,0,0,0,0,0,0,0,0,0,0,0,0,0,0,0,0,0,0,0,0,0,0,0,0,0,0,0,0,0,0,0,0,0,0,0,0,3.6971,3.697,0,3.6938,3.6937,3.6937,3.6887,3.6886,3.6885,3.6884,3.685,3.685,3.685,0,0,0,0,0,0,0,0,0,0,0,0,0,3.6991,3.699,3.6971,3.697,3.697,3.6938,3.6937,3.6937,3.6887,3.6886,3.6885,3.6884,3.685,3.685,3.685,0,0,0,0,0,0,0,0,0,0,0,0,0,3.6972,3.699,3.6971,3.6941,3.6938,3.6938,3.6937,3.6937,3.6887,3.6886,3.6885,3.6883,3.685,3.685,3.685,3.6876,0,0,3.685,3.685,0,0,0,0,0,0,0,0,3.6973,3.6972,3.6946,3.6943,3.694,3.6915,3.6932,3.6917,3.6888,3.6907,3.6884,3.6883,3.6873,3.6871,3.6868,3.6875,3.6873,3.685,3.685,3.685,3.685,0,0,0,0,0,0,0,3.6975,3.6973,3.6958,3.6946,3.6942,3.693,3.6926,3.6929,3.6898,3.6905,3.6901,3.6898,3.6871,3.6868,3.6867,3.6873,3.685,3.685,3.685,3.685,3.69,3.6902,0,0,0,0,0,0,3.698,3.6974,3.6959,3.6957,3.6954,3.693,3.6926,3.6924,3.6898,3.6892,3.6899,3.6896,3.6869,3.6867,3.6865,3.6895,3.685,3.685,3.685,3.6899,3.6901,3.6902,0,0,0,0,0,0,3.6981,3.6979,3.696,3.6964,3.6961,3.6931,3.693,3.6924,3.6921,3.6893,3.6887,3.6902,3.6868,3.6865,3.6874,3.6893,3.685,3.685,3.6897,3.6899,3.6901,3.6954,0,0,0,0,0,0,3.6982,3.698,3.6989,3.6965,3.6961,3.697,3.6931,3.6925,3.6921,3.6917,3.6894,3.6889,3.6866,3.6875,3.6874,3.6892,3.6849,3.6895,3.6898,3.6901,3.695,3.6957,3.6963,0,0,0,0,0,3.6983,3.7005,3.699,3.6989,3.6972,3.6971,3.6968,3.6942,3.6923,3.6932,3.6914,3.689,3.6891,3.6876,3.6875,3.6893,3.6894,3.6897,3.6901,3.6947,3.6956,3.6963,0,0,0,0,0,0,3.7032,3.7001,3.6984,3.7,3.6988,3.6962,3.6973,3.6952,3.6946,3.6942,3.6909,3.6904,3.6918,3.6906,3.689,3.6917,3.6889,3.6892,3.6924,3.6932,3.6939,3.6942,3.6849,0,0,0,0,0,3.7045,3.7047,3.7019,3.7035,3.7031,3.7003,3.7002,3.6982,3.6969,3.6964,3.6947,3.6935,3.6933,3.6932,3.6928,3.6948,3.6943,3.696,3.6967,3.6972,3.6975,3.6986,3.6994,3.6913,3.6913,3.6913,0,0,3.7071,3.7055,3.7057,3.7045,3.7034,3.7036,3.6999,3.7003,3.7005,3.6964,3.6972,3.6959,3.6944,3.6959,3.6964,3.6949,3.6997,3.6976,3.6981,3.6981,3.699,3.6998,3.7005,3.6915,3.6914,3.6914,0,0,3.7121,3.7108,3.712,3.711,3.7094,3.7076,3.7079,3.7056,3.7046,3.7053,3.7023,3.7025,3.7021,3.7012,3.7007,3.7054,3.7031,3.7053,3.7088,3.7099,3.7105,3.7111,3.7129,3.7135,3.7056,3.7057,3.7057,0,3.7156,3.7158,3.7129,3.7136,3.7131,3.7095,3.7108,3.7099,3.7083,3.7081,3.7064,3.706,3.7047,3.706,3.7071,3.7068,3.7071,3.7056,3.7107,3.7112,3.7117,3.7133,3.714,3.706,3.7059,3.7059,3.7059,0,3.7202,3.7204,3.7216,3.7202,3.7199,3.7208,3.7181,3.7182,3.7163,3.7147,3.7155,3.7138,3.7131,3.7132,3.7114,3.7143,3.7134,3.7113,3.7084,3.7128,3.7143,3.7149,3.7064,3.7063,3.7062,3.7061,0,0,3.7282,3.7252,3.7257,3.725,3.723,3.7231,3.7239,3.7232,3.7234,3.7224,3.723,3.7229,3.7209,3.7203,3.7183,3.7193,3.7232,3.717,3.7169,3.7183,3.7264,3.7281,3.7289,3.7217,3.7218,3.7219,3.7266,0,3.7328,3.734,3.7315,3.7333,3.7335,3.7301,3.7308,3.7297,3.7282,3.7282,3.7265,3.7265,3.7239,3.7235,3.7243,3.7226,3.7248,3.7222,3.7223,3.7224,3.7229,3.7297,3.7314,3.736,3.7272,3.7272,3.7273,0,3.7383,3.7376,3.7395,3.7375,3.7375,3.7381,3.7374,3.7374,3.736,3.7349,3.7343,3.732,3.7327,3.7299,3.7308,3.7291,3.729,3.7282,3.7283,3.7282,3.7252,3.7299,3.7373,3.738,3.7282,3.7281,3.7281,0,3.744,3.7436,3.7447,3.7442,3.7418,3.7424,3.7414,3.74,3.7398,3.7391,3.7389,3.7383,3.738,3.7376,3.7353,3.7334,3.7365,3.7335,3.7357,3.7357,3.7365,3.7365,3.7441,3.7363,3.7363,3.7363,3.7363,0,3.7495,3.7508,3.7472,3.7479,3.7493,3.7464,3.7479,3.7466,3.7453,3.7457,3.7427,3.7431,3.7399,3.74,3.7382,3.7393,3.7392,3.7383,3.7378,3.7386,3.7388,3.7386,3.7382,3.7365,3.7365,3.7364,3.7364,0,3.7561,3.7538,3.7548,3.7525,3.7519,3.7531,3.7511,3.7517,3.75,3.7506,3.7505,3.7479,3.7479,3.7455,3.7449,3.7437,3.7456,3.7445,3.7461,3.7458,3.7481,3.748,3.756,3.7569,3.7485,3.7485,3.7486,0,3.7598,3.7607,3.7585,3.7586,3.7578,3.7579,3.7577,3.7549,3.7548,3.7534,3.7542,3.7539,3.7536,3.7537,3.7518,3.7514,3.7503,3.7531,3.7502,3.751,3.7505,3.7505,3.7506,3.7538,3.7539,3.7539,3.754,0,3.7666,3.7654,3.7652,3.7646,3.7645,3.7639,3.7631,3.7633,3.7603,3.7603,3.7603,3.76,3.7595,3.7593,3.7586,3.7576,3.7554,3.7549,3.7554,3.7563,3.7572,3.7569,3.7479,3.7548,3.7547,3.7546,3.7546,3.7546,3.7719,3.7726,3.7712,3.7711,3.7702,3.7696,3.77,3.7685,3.7684,3.7678,3.7661,3.7664,3.7651,3.7639,3.7632,3.7633,3.7619,3.7626,3.7628,3.7631,3.7636,3.7572,3.7632,3.7632,3.7631,3.7631,3.7631,0,3.7785,3.7775,3.7774,3.7765,3.7764,3.7743,3.7734,3.7735,3.7738,3.7728,3.7725,3.7725,3.7724,3.7705,3.7701,3.7706,3.7696,3.7706,3.7706,3.7704,3.7648,3.7645,3.7715,3.7715,3.7715,3.7715,3.7715,3.7715,3.782,3.7832,3.7818,3.7825,3.7815,3.7817,3.7814,3.7808,3.78,3.7802,3.78,3.7788,3.7775,3.777,3.7768,3.7762,3.7763,3.7777,3.7768,3.7716,3.7708,3.77,3.7697,3.7777,3.7777,3.7824,3.7825,3.7825]}]]